Time,TemperatureF,DewpointF,PressureIn,WindDirection,WindDirectionDegrees,WindSpeedMPH,WindSpeedGustMPH,Humidity,HourlyPrecipIn,Conditions,Clouds,dailyrainin,SoftwareType,DateUTC
2013-08-23 00:21:00,49.0,42.0,30.65,East,82,5.0,8.0,76,0.00,,,0.01,,2013-08-23 07:21:00,
2013-08-23 00:52:00,47.0,43.0,30.64,ESE,104,1.0,5.0,86,0.00,,,0.01,,2013-08-23 07:52:00,
2013-08-23 01:22:00,48.0,41.0,30.63,ENE,63,9.0,14.0,77,0.00,,,0.00,,2013-08-23 08:22:00,
2013-08-23 01:52:00,49.0,41.0,30.63,ESE,114,6.0,11.0,75,0.00,,,0.00,,2013-08-23 08:52:00,
2013-08-23 02:21:00,49.0,42.0,30.62,ESE,122,5.0,13.0,76,0.00,,,0.00,,2013-08-23 09:21:00,
2013-08-23 02:53:00,48.0,41.0,30.61,ESE,119,4.0,11.0,78,0.00,,,0.00,,2013-08-23 09:53:00,
2013-08-23 03:22:00,48.0,41.0,30.60,SE,127,7.0,14.0,77,0.00,,,0.00,,2013-08-23 10:22:00,
2013-08-23 06:52:00,46.0,41.0,30.58,SSE,155,9.0,15.0,82,0.00,,,0.00,,2013-08-23 13:52:00,
2013-08-23 07:21:00,46.0,42.0,30.60,SSE,162,9.0,15.0,87,0.00,,,0.00,,2013-08-23 14:21:00,
2013-08-23 07:52:00,45.0,42.0,30.60,SSE,160,7.0,13.0,90,0.00,,,0.00,,2013-08-23 14:52:00,
2013-08-23 08:21:00,47.0,43.0,30.61,SSE,153,6.0,10.0,85,0.00,,,0.00,,2013-08-23 15:21:00,
2013-08-23 08:54:00,48.0,42.0,30.60,SSE,161,10.0,15.0,81,0.00,,,0.00,,2013-08-23 15:54:00,
2013-08-23 09:24:00,49.0,42.0,30.61,SSE,151,10.0,18.0,77,0.00,,,0.00,,2013-08-23 16:24:00,
2013-08-23 09:53:00,49.0,43.0,30.62,South,175,6.0,15.0,79,0.00,,,0.00,,2013-08-23 16:53:00,
2013-08-23 10:23:00,49.0,43.0,30.62,South,181,9.0,17.0,79,0.00,,,0.00,,2013-08-23 17:23:00,
2013-08-23 10:53:00,50.0,44.0,30.62,South,175,8.0,17.0,79,0.00,,,0.00,,2013-08-23 17:53:00,
2013-08-23 11:22:00,50.0,43.0,30.62,South,170,9.0,17.0,76,0.00,,,0.00,,2013-08-23 18:22:00,
2013-08-23 11:52:00,50.0,44.0,30.61,South,171,9.0,19.0,81,0.00,,,0.00,,2013-08-23 18:52:00,
2013-08-23 12:21:00,50.0,44.0,30.60,South,179,9.0,15.0,80,0.00,,,0.00,,2013-08-23 19:21:00,
2013-08-23 12:42:00,51.0,45.0,30.60,South,177,11.0,18.0,79,0.00,,,0.00,,2013-08-23 19:42:00,
2013-08-23 12:52:00,52.0,45.0,30.59,South,183,11.0,19.0,77,0.00,,,0.00,,2013-08-23 19:52:00,
2013-08-23 13:22:00,52.0,45.0,30.58,South,187,10.0,18.0,77,0.00,,,0.00,,2013-08-23 20:22:00,
2013-08-23 13:52:00,52.0,43.0,30.58,SSW,195,9.0,20.0,72,0.00,,,0.00,,2013-08-23 20:52:00,
2013-08-23 14:21:00,52.0,42.0,30.58,SSW,213,9.0,17.0,68,0.00,,,0.00,,2013-08-23 21:21:00,
2013-08-23 14:54:00,53.0,43.0,30.58,South,188,9.0,19.0,68,0.00,,,0.00,,2013-08-23 21:54:00,
2013-08-23 15:24:00,52.0,45.0,30.58,SSW,192,5.0,12.0,77,0.00,,,0.00,,2013-08-23 22:24:00,
2013-08-23 15:53:00,51.0,44.0,30.57,SW,222,3.0,10.0,77,0.00,,,0.00,,2013-08-23 22:53:00,
2013-08-23 16:22:00,52.0,42.0,30.56,SW,223,7.0,15.0,69,0.00,,,0.00,,2013-08-23 23:22:00,
2013-08-23 16:54:00,54.0,43.0,30.56,SSW,210,4.0,11.0,66,0.00,,,0.00,,2013-08-23 23:54:00,
2013-08-23 17:21:00,53.0,41.0,30.55,South,186,6.0,12.0,64,0.00,,,0.00,,2013-08-24 00:21:00,
2013-08-23 17:53:00,50.0,40.0,30.54,SSW,197,6.0,15.0,69,0.00,,,0.00,,2013-08-24 00:53:00,
2013-08-23 18:22:00,47.0,43.0,30.53,SSE,153,6.0,18.0,85,0.01,,,0.01,,2013-08-24 01:22:00,
2013-08-23 18:53:00,48.0,42.0,30.54,South,174,6.0,10.0,79,0.02,,,0.02,,2013-08-24 01:53:00,
2013-08-23 19:22:00,47.0,41.0,30.54,SSE,160,3.0,7.0,81,0.01,,,0.02,,2013-08-24 02:22:00,
2013-08-23 19:52:00,47.0,42.0,30.55,SSE,167,3.0,7.0,83,0.00,,,0.02,,2013-08-24 02:52:00,
2013-08-23 20:22:00,47.0,42.0,30.57,SW,214,3.0,6.0,84,0.00,,,0.02,,2013-08-24 03:22:00,
2013-08-23 20:54:00,47.0,42.0,30.58,West,277,3.0,9.0,83,0.00,,,0.02,,2013-08-24 03:54:00,
2013-08-23 21:24:00,46.0,41.0,30.58,West,280,2.0,6.0,82,0.00,,,0.02,,2013-08-24 04:24:00,
2013-08-23 21:53:00,47.0,41.0,30.58,South,182,5.0,8.0,79,0.00,,,0.02,,2013-08-24 04:53:00,
2013-08-23 22:23:00,47.0,41.0,30.58,SSE,166,5.0,8.0,79,0.00,,,0.02,,2013-08-24 05:23:00,
2013-08-23 22:53:00,47.0,40.0,30.58,SSE,161,6.0,12.0,77,0.00,,,0.02,,2013-08-24 05:53:00,
2013-08-23 23:21:00,46.0,39.0,30.57,SSE,165,7.0,12.0,75,0.00,,,0.02,,2013-08-24 06:21:00,
2013-08-23 23:52:00,46.0,39.0,30.57,SSE,161,7.0,11.0,75,0.00,,,0.02,,2013-08-24 06:52:00,